EW0205 Weather Reports


time (UTC)temp
F
wind
direction
speed
knots
gust
knots
rain 1hr
in
rain 24hr
in
rain mn
in
humidity
%
barometer
mb
20260507030041 44 234 1.7 6.1 0.00 0.41 0.38 93 1007.8
20260507024539 44 255 1.7 4.3 0.00 0.43 0.38 93 1007.7
20260507023038 45 254 0.0 2.6 0.00 0.43 0.38 92 1007.9
20260507021537 45 261 0.0 0.9 0.00 0.43 0.38 92 1007.8
20260507020038 45 260 0.0 1.7 0.00 0.43 0.38 91 1007.8
20260507014549 45 260 0.0 0.9 0.00 0.43 0.38 91 1007.9
20260507013044 45 260 0.0 0.0 0.00 0.43 0.38 91 1008.0
20260507011539 45 260 0.0 0.9 0.00 0.43 0.38 91 1008.1
20260507010036 45 260 0.0 0.0 0.00 0.43 0.38 91 1007.9
20260507004534 45 260 0.0 0.9 0.00 0.43 0.38 90 1007.7
20260507003037 45 260 0.0 0.0 0.00 0.43 0.38 90 1007.5
20260507001537 46 260 0.0 0.9 0.00 0.43 0.38 89 1007.5
20260507000033 46 260 0.0 0.0 0.00 0.43 0.38 88 1007.3
20260506234532 46 260 0.0 1.7 0.00 0.43 0.38 88 1007.2
20260506233033 46 266 0.0 1.7 0.00 0.43 0.38 87 1007.3
20260506231532 46 266 0.9 3.5 0.00 0.43 0.38 86 1007.0
20260506230031 47 259 0.0 3.5 0.00 0.43 0.38 86 1007.0
20260506224531 47 261 0.0 3.5 0.00 0.43 0.38 86 1007.0
20260506223030 47 277 0.0 1.7 0.00 0.43 0.38 86 1006.9
20260506221530 47 273 0.0 2.6 0.00 0.43 0.38 86 1006.9
20260506220030 47 277 0.9 2.6 0.00 0.43 0.38 86 1007.0
20260506214529 47 255 0.9 3.5 0.00 0.43 0.38 86 1006.9
20260506213028 47 304 0.9 2.6 0.00 0.43 0.38 86 1006.9
20260506211527 46 302 0.0 2.6 0.00 0.43 0.38 86 1007.1
20260506210031 46 296 0.0 2.6 0.00 0.43 0.38 87 1007.0
20260506204526 46 280 0.9 3.5 0.00 0.43 0.38 87 1007.2
20260506203031 46 292 0.0 2.6 0.00 0.43 0.38 87 1007.0
20260506201526 46 261 0.0 3.5 0.00 0.43 0.38 88 1007.3
20260506200025 46 284 0.0 2.6 0.00 0.43 0.38 88 1007.3
20260506194525 46 271 0.9 2.6 0.00 0.43 0.38 87 1007.4
20260506193024 46 294 0.0 3.5 0.00 0.43 0.38 86 1007.4
20260506191523 46 325 0.0 1.7 0.00 0.43 0.38 86 1007.3
20260506190022 46 82 0.0 0.9 0.00 0.43 0.38 87 1007.2
20260506184522 46 72 0.9 2.6 0.00 0.46 0.38 87 1007.1
20260506183023 46 113 0.0 2.6 0.00 0.46 0.38 90 1007.2
20260506181526 45 113 0.0 1.7 0.00 0.46 0.38 90 1007.4
20260506180028 45 332 0.0 0.9 0.01 0.46 0.38 92 1007.5
20260506174514 44 291 0.0 1.7 0.01 0.46 0.38 92 1007.8
20260506173014 43 291 0.0 1.7 0.02 0.46 0.38 91 1008.0
20260506171523 44 296 0.0 2.6 0.02 0.46 0.38 93 1008.0
20260506170012 44 331 0.9 3.5 0.02 0.45 0.37 93 1008.4
20260506164510 44 292 0.9 2.6 0.03 0.45 0.37 94 1008.3
20260506163019 44 306 1.7 4.3 0.04 0.44 0.36 95 1008.4
20260506161511 44 311 0.9 4.3 0.06 0.44 0.36 96 1008.5
20260506160003 44 325 2.6 4.3 0.07 0.43 0.35 95 1008.6
20260506154600 44 294 0.9 4.3 0.08 0.43 0.35 96 1008.6
20260506153056 43 281 0.9 4.3 0.07 0.40 0.32 96 1008.7
20260506151553 43 292 2.6 5.2 0.06 0.38 0.30 95 1008.8
20260506150055 43 265 1.7 4.3 0.05 0.36 0.28 95 1008.8
20260506144553 43 360 0.0 1.7 0.05 0.35 0.27 95 1008.9
20260506143051 43 241 0.0 0.0 0.04 0.33 0.25 95 1008.8
20260506141550 44 241 0.0 4.3 0.04 0.32 0.24 95 1008.8
20260506140050 43 252 0.0 0.9 0.05 0.31 0.24 95 1008.8
20260506134612 43 252 0.0 0.0 0.05 0.30 0.22 95 1008.7
20260506133046 43 252 0.0 1.7 0.04 0.28 0.21 94 1008.6
20260506131604 43 247 0.0 3.5 0.05 0.28 0.20 94 1008.6
20260506130046 43 271 0.0 2.6 0.05 0.27 0.19 94 1008.8
20260506124542 43 257 0.9 3.5 0.05 0.27 0.17 94 1008.8
20260506123045 44 255 0.9 2.6 0.06 0.27 0.17 94 1008.9
20260506121539 44 263 0.0 2.6 0.08 0.25 0.16 94 1009.1
20260506120035 44 266 0.0 2.6 0.09 0.24 0.14 93 1009.0
20260506114540 44 271 0.0 2.6 0.09 0.22 0.13 93 1009.0
20260506113035 44 273 0.0 2.6 0.09 0.20 0.11 92 1009.1
20260506111528 44 286 0.0 3.5 0.06 0.17 0.08 92 1009.2
20260506110028 44 265 0.9 2.6 0.05 0.15 0.06 90 1009.3
20260506104523 45 250 0.0 2.6 0.03 0.13 0.04 89 1008.8
20260506103025 45 259 0.9 2.6 0.02 0.12 0.02 87 1008.5
20260506101518 46 246 0.0 1.7 0.01 0.11 0.02 85 1008.3
20260506100028 46 248 0.9 2.6 0.00 0.10 0.01 84 1008.3
20260506094516 47 248 0.0 4.3 0.00 0.10 0.01 82 1008.4
20260506093012 47 229 1.7 4.3 0.00 0.10 0.01 82 1008.4
20260506091510 47 240 1.7 8.7 0.00 0.10 0.01 83 1008.3
20260506090008 47 360 1.7 8.7 0.00 0.10 0.01 84 1008.0
20260506084507 47 219 0.9 5.2 0.01 0.10 0.01 84 1008.0
20260506083006 47 232 0.9 5.2 0.01 0.10 0.01 85 1008.2
20260506081504 47 360 1.7 7.0 0.01 0.10 0.01 85 1008.2
20260506073100 48 219 1.7 6.1 0.00 0.09 0.00 84 1008.1
20260506071558 48 360 3.5 6.1 0.00 0.09 0.00 84 1008.2
20260506070121 48 360 1.7 7.0 0.00 0.09 0.00 85 1007.9
20260506061549 48 238 2.6 5.2 0.00 0.09 0.00 87 1007.8
20260506044539 49 360 2.6 7.8 0.00 0.09 0.00 86 1007.6
20260506043034 48 223 3.5 7.8 0.01 0.09 0.00 86 1007.2
20260506041538 48 248 4.3 11.3 0.02 0.09 0.00 86 1007.1
20260506040029 49 360 4.3 8.7 0.03 0.09 0.00 88 1006.6
20260506034525 49 360 4.3 9.6 0.03 0.09 0.09 87 1006.4
20260506033022 50 213 4.3 9.6 0.03 0.09 0.09 87 1006.3
20260506031527 51 360 5.2 9.6 0.03 0.08 0.08 86 1006.1